When you browse on this site, cookies collect data to enhance your experience and personalize the content and advertising you see.
Visit our Privacy Policy to learn more. By continuing to use the site, you agree to this use of cookies and data.
  • In Austria
  • List of Countries
  • For 7 days
  • Water Temperature
  • Weather Map
  • News
  • Weather Widgets
  • user-avatar
    Login

    Hourly Weather Kalat

    Today, 27 May, Wednesday

    Time Temperature Precipitation Wind Pressure Humidity
    00:00 +3°C° 0 mm 1 mps 477 mmHg 82%
    01:00 +3°C° 0 mm 1 mps 477 mmHg 83%
    02:00 +3°C° 0 mm 1 mps 476 mmHg 83%
    03:00 +3°C° 0.1 mm 1 mps 476 mmHg 85%
    04:00 +2°C° 0.1 mm 1 mps 476 mmHg 87%
    05:00 +1°C° 0 mm 1 mps 475 mmHg 89%
    06:00 +2°C° 0.2 mm 1 mps 475 mmHg 90%
    07:00 +2°C° 0.2 mm 1 mps 476 mmHg 90%
    08:00 +3°C° 0.2 mm 1 mps 476 mmHg 91%
    09:00 +4°C° 0.2 mm 1 mps 476 mmHg 90%
    10:00 +4°C° 0.2 mm 1 mps 477 mmHg 88%
    11:00 +5°C° 0.2 mm 1 mps 477 mmHg 87%
    12:00 +6°C° 0.4 mm 1 mps 477 mmHg 84%
    13:00 +6°C° 0.4 mm 1 mps 478 mmHg 81%
    14:00 +6°C° 0.4 mm 2 mps 478 mmHg 78%
    15:00 +6°C° 0.7 mm 2 mps 478 mmHg 77%
    16:00 +6°C° 0.7 mm 2 mps 478 mmHg 76%
    17:00 +6°C° 0.7 mm 2 mps 477 mmHg 75%
    18:00 +5°C° 0.4 mm 2 mps 477 mmHg 79%
    19:00 +4°C° 0.4 mm 2 mps 477 mmHg 82%
    20:00 +3°C° 0.4 mm 2 mps 476 mmHg 86%
    21:00 +3°C° 0.2 mm 2 mps 476 mmHg 86%
    22:00 +3°C° 0.2 mm 1 mps 476 mmHg 86%
    23:00 +3°C° 0.2 mm 1 mps 476 mmHg 87%

    Tomorrow, 28 May, Thursday

    Time Temperature Precipitation Wind Pressure Humidity
    00:00 +3°C° 0 mm 1 mps 475 mmHg 87%
    01:00 +2°C° 0 mm 1 mps 475 mmHg 87%
    02:00 +2°C° 0 mm 1 mps 474 mmHg 88%
    03:00 +2°C° 0 mm 1 mps 474 mmHg 88%
    04:00 +2°C° 0 mm 1 mps 474 mmHg 88%
    05:00 +2°C° 0 mm 1 mps 474 mmHg 89%
    06:00 +2°C° 0 mm 1 mps 474 mmHg 86%
    07:00 +3°C° 0 mm 1 mps 475 mmHg 84%
    08:00 +4°C° 0 mm 1 mps 475 mmHg 82%
    09:00 +5°C° 0 mm 1 mps 476 mmHg 76%
    10:00 +6°C° 0 mm 1 mps 476 mmHg 71%
    11:00 +7°C° 0 mm 1 mps 477 mmHg 66%
    12:00 +7°C° 0.2 mm 1 mps 477 mmHg 62%
    13:00 +8°C° 0.2 mm 1 mps 478 mmHg 58%
    14:00 +8°C° 0.2 mm 2 mps 478 mmHg 54%
    15:00 +8°C° 0.3 mm 2 mps 478 mmHg 57%
    16:00 +7°C° 0.3 mm 2 mps 477 mmHg 61%
    17:00 +7°C° 0.3 mm 2 mps 477 mmHg 64%
    18:00 +6°C° 0.3 mm 2 mps 477 mmHg 70%
    19:00 +5°C° 0.3 mm 2 mps 476 mmHg 76%
    20:00 +4°C° 0.3 mm 2 mps 476 mmHg 82%
    21:00 +5°C° 0.1 mm 1 mps 476 mmHg 82%
    22:00 +4°C° 0.1 mm 1 mps 475 mmHg 82%
    23:00 +4°C° 0.1 mm 1 mps 475 mmHg 82%

    Day after tomorrow, 29 May, Friday

    Time Temperature Precipitation Wind Pressure Humidity
    00:00 +3°C° 0 mm 0 mps 475 mmHg 81%
    01:00 +3°C° 0 mm 0 mps 475 mmHg 81%
    02:00 +3°C° 0 mm 0 mps 475 mmHg 80%
    03:00 +2°C° 0 mm 0 mps 474 mmHg 80%
    04:00 +2°C° 0 mm 0 mps 474 mmHg 80%
    05:00 +2°C° 0 mm 0 mps 474 mmHg 80%
    06:00 +4°C° 0 mm 1 mps 475 mmHg 76%
    07:00 +5°C° 0 mm 1 mps 475 mmHg 73%
    08:00 +5°C° 0 mm 1 mps 476 mmHg 69%
    09:00 +6°C° 0.1 mm 1 mps 477 mmHg 64%
    10:00 +7°C° 0.1 mm 1 mps 477 mmHg 60%
    11:00 +7°C° 0.1 mm 2 mps 478 mmHg 55%
    12:00 +8°C° 0.2 mm 2 mps 478 mmHg 54%
    13:00 +8°C° 0.2 mm 2 mps 479 mmHg 54%
    14:00 +9°C° 0.2 mm 3 mps 479 mmHg 53%
    15:00 +8°C° 0.3 mm 3 mps 479 mmHg 56%
    16:00 +8°C° 0.3 mm 3 mps 478 mmHg 59%
    17:00 +8°C° 0.3 mm 3 mps 478 mmHg 62%
    18:00 +7°C° 0.4 mm 3 mps 478 mmHg 68%
    19:00 +4°C° 0.4 mm 3 mps 477 mmHg 75%
    20:00 +3°C° 0.4 mm 3 mps 476 mmHg 81%
    21:00 +4°C° 0.3 mm 2 mps 476 mmHg 81%
    22:00 +5°C° 0.3 mm 1 mps 476 mmHg 81%
    23:00 +4°C° 0.3 mm 1 mps 476 mmHg 81%

    30 May, Saturday

    Time Temperature Precipitation Wind Pressure Humidity
    00:00 +4°C° 0 mm 1 mps 476 mmHg 80%
    01:00 +4°C° 0 mm 1 mps 475 mmHg 80%
    02:00 +4°C° 0 mm 1 mps 475 mmHg 79%
    03:00 +3°C° 0 mm 1 mps 475 mmHg 80%
    04:00 +3°C° 0 mm 1 mps 474 mmHg 80%
    05:00 +3°C° 0 mm 1 mps 474 mmHg 80%
    06:00 +3°C° 0 mm 1 mps 475 mmHg 77%
    07:00 +4°C° 0 mm 1 mps 476 mmHg 74%
    08:00 +5°C° 0 mm 1 mps 476 mmHg 71%
    09:00 +6°C° 0 mm 1 mps 477 mmHg 65%
    10:00 +7°C° 0 mm 1 mps 478 mmHg 60%
    11:00 +8°C° 0 mm 1 mps 479 mmHg 54%
    12:00 +7°C° 0.1 mm 2 mps 479 mmHg 53%
    13:00 +8°C° 0.1 mm 2 mps 479 mmHg 51%
    14:00 +9°C° 0.1 mm 3 mps 480 mmHg 49%
    15:00 +9°C° 0.1 mm 3 mps 479 mmHg 51%
    16:00 +8°C° 0.1 mm 3 mps 479 mmHg 53%
    17:00 +7°C° 0.1 mm 4 mps 479 mmHg 55%
    18:00 +7°C° 0.1 mm 3 mps 478 mmHg 60%
    19:00 +5°C° 0.1 mm 3 mps 478 mmHg 64%
    20:00 +5°C° 0.1 mm 3 mps 478 mmHg 68%
    21:00 +4°C° 0 mm 3 mps 477 mmHg 69%
    22:00 +5°C° 0 mm 2 mps 477 mmHg 71%
    23:00 +4°C° 0 mm 2 mps 477 mmHg 72%

    31 May, Sunday

    Time Temperature Precipitation Wind Pressure Humidity
    00:00 +4°C° 0 mm 2 mps 477 mmHg 72%
    01:00 +3°C° 0 mm 2 mps 476 mmHg 73%
    02:00 +3°C° 0 mm 2 mps 476 mmHg 73%
    03:00 +2°C° 0 mm 2 mps 475 mmHg 73%
    04:00 +2°C° 0 mm 2 mps 475 mmHg 74%
    05:00 +2°C° 0 mm 2 mps 475 mmHg 74%
    06:00 +2°C° 0 mm 2 mps 476 mmHg 69%
    07:00 +3°C° 0 mm 2 mps 476 mmHg 64%
    08:00 +4°C° 0 mm 2 mps 477 mmHg 59%
    09:00 +5°C° 0 mm 2 mps 478 mmHg 53%
    10:00 +6°C° 0 mm 2 mps 478 mmHg 46%
    11:00 +7°C° 0 mm 2 mps 479 mmHg 40%
    12:00 +8°C° 0 mm 3 mps 480 mmHg 39%
    13:00 +9°C° 0 mm 3 mps 480 mmHg 38%
    14:00 +8°C° 0 mm 4 mps 480 mmHg 36%
    15:00 +8°C° 0 mm 4 mps 480 mmHg 39%
    16:00 +8°C° 0 mm 4 mps 480 mmHg 41%
    17:00 +8°C° 0 mm 4 mps 480 mmHg 43%
    18:00 +7°C° 0 mm 4 mps 479 mmHg 47%
    19:00 +6°C° 0 mm 4 mps 479 mmHg 51%
    20:00 +5°C° 0 mm 3 mps 478 mmHg 55%
    21:00 +4°C° 0 mm 3 mps 478 mmHg 58%
    22:00 +3°C° 0 mm 3 mps 478 mmHg 61%
    23:00 +3°C° 0 mm 3 mps 477 mmHg 64%

    1 June, Monday

    Time Temperature Precipitation Wind Pressure Humidity
    00:00 +2°C° 0 mm 3 mps 477 mmHg 64%
    01:00 +3°C° 0 mm 2 mps 477 mmHg 65%
    02:00 +2°C° 0 mm 2 mps 476 mmHg 65%
    03:00 +2°C° 0 mm 2 mps 476 mmHg 65%
    04:00 +1°C° 0 mm 2 mps 476 mmHg 65%
    05:00 +1°C° 0 mm 2 mps 475 mmHg 66%
    06:00 +2°C° 0 mm 2 mps 476 mmHg 58%
    07:00 +3°C° 0 mm 2 mps 477 mmHg 51%
    08:00 +4°C° 0 mm 2 mps 478 mmHg 44%
    09:00 +4°C° 0 mm 3 mps 478 mmHg 43%
    10:00 +5°C° 0 mm 3 mps 479 mmHg 41%
    11:00 +7°C° 0 mm 3 mps 480 mmHg 39%
    12:00 +7°C° 0 mm 4 mps 480 mmHg 38%
    13:00 +8°C° 0 mm 4 mps 481 mmHg 37%
    14:00 +8°C° 0 mm 4 mps 481 mmHg 36%
    15:00 +8°C° 0 mm 4 mps 481 mmHg 37%
    16:00 +8°C° 0 mm 4 mps 480 mmHg 37%
    17:00 +8°C° 0 mm 4 mps 480 mmHg 37%
    18:00 +7°C° 0 mm 4 mps 480 mmHg 41%
    19:00 +6°C° 0 mm 4 mps 479 mmHg 45%
    20:00 +5°C° 0 mm 4 mps 479 mmHg 48%
    21:00 +4°C° 0 mm 3 mps 478 mmHg 52%
    22:00 +3°C° 0 mm 3 mps 478 mmHg 55%
    23:00 +3°C° 0 mm 3 mps 478 mmHg 58%
    Show more